STARLINK-3961 (52637 NORAD) Tracking and Keplerian Element Data
This shows tracking and keplerian element data for the satellite.
Feedback or suggestion? Click here.
Element | Value |
Catalog | 52637 |
Name | STARLINK-3961 |
Epoch Orbit | 130 |
Epoch Day | 167.08334491 |
Epoch Year | 2022 |
RAAN | 279.9924 |
Inclination | 53.2175 |
Eccentricity | 0.0001658 |
Argument of Perigee | 36.3081 |
Mean Anonmoly | 3.7135 |
Mean Motion | 15.73204951 |
Decay Rate | -1.713E-05 |
L1 | 1 52637U 22052AR 22167.08334491 -.00001713 00000+0 -77825-5 0 9991 |
L2 | 2 52637 53.2175 279.9924 0001658 36.3081 3.7135 15.73204951 1301 |
Live tracking and technical data element details for STARLINK-3961 (NORAD 52637). STARLINK-3961 can be tracked NOW for your location showing map with azimuth and elevation plus other details from your city location.
Track the satellite on the map from your city or location and see movement details for azimuth, elevation, latitude, longitude, range, height, and movement on the map or in text.
IsCatalogInMostPopularTable: catalog: 52637, numindb: 2
Update: records affected: 1
GetName: 52637 STARLINK-3961
Hit Count: updated at: Sat, 25 Jun 2022 04:19:35 GMT